Voltar ao catálogo

STARLINK-4292

AtivoComunicaçõesVLEO
NORAD 53175·PAYLOAD·🇺🇸 United States

Lançado Jul 17, 2022 de Cape Canaveral Space Force Station

Loading…

Próximas Passagens (próximas 24 horas)

TLE

AtualizadoSource: CelesTrak SupGP

Época: Sep 14, 2026, 21:51 UTC

1 53175C 22083AV  26257.91090278  .00018052  00000+0  51666-3 0  2573
2 53175  53.1601  35.5201 0001139  78.4091 197.4289 15.35379190    12

Acompanhe STARLINK-4292 em tempo real com AllMySat

Download on the App Store